NOAA 16 DEB, 41344

Orbit data source: Space-Track

NOAA 16 DEB, 41344 is space debris in SSO originally from a launch on Thu, 21 Sep 2000 UTC launched from the Air Force Western Test Range (AFWTR). Debris objects in space refer to the collection of defunct objects orbiting the Earth. Examples of debris include non-operational satellites, rocket bodies, and fragments generated from explosions, collisions, or faulty payload assembly.

Loading next visibility...
Identifier
41344, 2000-055HM
Orbit
SSO
Country
Flag of USUS
Related business
Manufacturer
Unknown
Mission
Spacecraft
Bus & Motor
Unknown
Mass
Unknown
Launch date (UTC)
2000-09-21 (25 years ago)
Launch vehicle
Unknown
Launch site
Air Force Western Test Range (AFWTR)
Object type
Payload
Rocket body
Debris
Shape & HBR
Unknown shape, 0.1 m
Radar Cross Section
Small (<0.1 m²)

Expand to show TLE details & history
Last TLE update: 1 day ago

TLE from 1 day ago
0 NOAA 16 DEB
1 41344U 00055HM  25305.85660646  .00006968  00000-0  20610-2 0  9992
2 41344  99.0676 172.1862 0024204 105.2096 255.1771 14.43592037507667
Epoch: 2025-11-01T20:33Z
TLE epoch observation values (Epoch: 2025-11-01T20:33:30.798Z)
Latitude
-0.00001°
Longitude
-177.5728°
Altitude
754.042 km
Speed
7.475 km/s
True Right ascension
11h 28m 44s
True Declination
0° 00' 00"
Sunlit
Object was in daylight at epoch
Visualization orbit readout
Latitude
Unknown
Longitude
Unknown
Altitude
Unknown
Speed
Unknown
Apparent Right ascension
Unknown
Apparent Declination
Unknown
Sunlit
N/A
Visualization observer readout
Local Sidereal Time
01:38:52
Azimuth
Unknown
Elevation
Unknown
Doppler factor
Unknown
Orbital elements
Apogee altitude
761.038 km
Perigee altitude
726.562 km
Semi-major axis
7,121.937 km
Eccentricity
0.00242
Inclination
99.0676°
RAAN
172.1862°
Arg. of periapsis
105.2096°
True anomaly
254.90918°
Mean anomaly
255.1771°
Eccentric anomaly
255.04312°
Mean motion
3.61115 °/min
Orbital period
99.69 mins
BSTAR
0.002061
Loading maneuver chart data...
Computing Atmospheric mass density...
Loading historical data...
Loading historical data...
Loading historical data...
Loading historical data...
Loading historical data...
Loading historical data...
Loading historical data...

Documentation

Showing up to 5 results
|